CDT,Max TemperatureF,Mean TemperatureF,Min TemperatureF,Max Dew PointF,MeanDew PointF,Min DewpointF,Max Humidity, Mean Humidity, Min Humidity, Max Sea Level PressureIn, Mean Sea Level PressureIn, Min Sea Level PressureIn, Max VisibilityMiles, Mean VisibilityMiles, Min VisibilityMiles, Max Wind SpeedMPH, Mean Wind SpeedMPH, Max Gust SpeedMPH,PrecipitationIn, CloudCover, Events, WindDirDegrees
2012-7-1,90,77,64,74,69,62,93,75,56,29.82,29.76,29.70,,,,13,5,17,0.00,,,158
2012-7-2,99,84,69,78,71,67,97,66,35,29.73,29.65,29.58,,,,23,9,32,0.00,,,188
2012-7-3,91,82,73,75,72,70,93,73,52,29.71,29.66,29.62,,,,15,7,20,0.00,,,44
2012-7-4,98,86,74,74,72,70,94,70,45,29.74,29.60,29.54,,,,18,9,22,0.00,,,230
2012-7-5,86,74,62,70,58,50,90,60,30,29.94,29.88,29.75,,,,13,6,18,0.00,,,44
2012-7-6,75,69,62,68,63,60,93,79,64,30.08,29.92,29.80,,,,35,10,46,0.06,,,32
2012-7-7,83,71,59,64,60,57,97,71,45,30.17,30.14,30.10,,,,13,6,17,0.00,,,20
2012-7-8,88,73,58,67,61,56,90,65,40,30.16,30.12,30.06,,,,22,3,29,0.00,,,352
2012-7-9,84,72,59,61,57,53,93,65,37,30.15,30.12,30.09,,,,13,4,16,0.00,,,23
2012-7-10,86,72,58,62,57,54,87,62,37,30.13,30.08,30.00,,,,13,5,17,0.00,,,197
2012-7-11,89,76,63,61,58,55,81,59,36,30.02,29.96,29.85,,,,21,11,26,0.00,,,201
2012-7-12,92,80,68,70,64,59,84,63,41,29.90,29.84,29.79,,,,30,9,36,0.05,,,203
2012-7-13,88,75,62,67,64,60,93,68,43,29.93,29.89,29.84,,,,12,4,14,0.00,,,2
2012-7-14,89,76,63,68,64,60,87,65,43,30.00,29.96,29.93,,,,9,3,13,0.00,,,6
2012-7-15,89,78,67,71,68,65,93,73,52,29.97,29.85,29.70,,,,26,12,32,0.00,,,165
2012-7-16,95,83,71,74,66,59,84,61,38,29.70,29.64,29.55,,,,36,14,48,0.00,,,327
2012-7-17,79,72,65,68,66,63,93,80,67,29.86,29.79,29.71,,,,17,8,22,0.04,,,31
2012-7-18,86,76,66,71,67,64,100,79,58,29.86,29.84,29.79,,,,10,3,14,0.31,,,130
2012-7-19,88,77,65,75,71,64,100,84,68,29.95,29.91,29.87,,,,17,7,22,0.00,,,158
2012-7-20,94,83,71,77,71,63,93,66,39,30.01,29.92,29.86,,,,28,9,39,0.08,,,166
2012-7-21,84,77,69,74,68,64,94,75,55,29.99,29.93,29.89,,,,20,7,26,0.01,,,90
2012-7-22,96,83,69,74,69,59,100,72,43,29.90,29.84,29.79,,,,35,5,43,0.01,,,248
2012-7-23,84,75,66,69,65,62,90,72,54,29.94,29.90,29.83,,,,16,6,22,0.00,,,19
2012-7-24,78,73,68,73,70,66,100,91,82,29.89,29.78,29.57,,,,16,10,23,0.03,,,138
2012-7-25,87,76,64,74,70,59,100,80,59,29.70,29.62,29.53,,,,31,8,43,1.48,,,331
2012-7-26,77,69,61,64,59,56,93,72,50,29.90,29.77,29.69,,,,24,11,31,0.24,,,319
2012-7-27,79,69,59,63,60,58,97,73,48,30.04,30.00,29.93,,,,14,6,18,0.00,,,9
2012-7-28,84,72,60,70,65,59,97,80,62,30.03,29.97,29.91,,,,16,7,21,0.00,,,157
2012-7-29,85,74,62,72,68,62,100,81,61,29.94,29.88,29.81,,,,14,7,16,0.00,,,165
2012-7-30,83,73,63,67,64,61,93,72,51,29.94,29.89,29.80,,,,16,7,21,0.00,,,356
2012-7-31,85,72,59,68,65,59,100,78,55,29.95,29.90,29.82,,,,14,6,17,0.00,,,173